Location: Bénac
(42.9535°N, 1.5250°E)
Time: 03:23:17
(UTC+00:00)

Daily predictions for brighter satellites

Satellite Brightness Start Highest point End
(mag) Time Altitude Azimuth Time Altitude Azimuth Time Altitude Azimuth
Cosmos 2228 Rocket 3.8 00:05:20 45° ENE 00:05:20 45° ENE 00:09:07 10° NNE
Cosmos 2082 Rocket 2.6 00:07:01 47° ESE 00:07:08 47° ESE 00:12:36 10° NE
Cosmos 1833 Rocket 3.2 00:08:10 43° W 00:09:22 50° WNW 00:14:50 10° NNE
Meteor 1-12 Rocket 4.5 00:04:50 10° N 00:10:43 67° ENE 00:11:47 56° SE
Cosmos 724 4.2 00:12:03 67° SW 00:12:52 83° WNW 00:18:46 10° NNE
BREEZE-M DEB (TANK) 3.5 00:13:11 58° NE 00:13:11 58° NE 00:19:58 10° ESE
Cosmos 1140 Rocket 4.2 00:22:28 42° W 00:23:13 44° WNW 00:28:13 10° N
ATLAS CENTAUR R/B 4.2 00:11:46 10° NW 00:25:35 80° SW 00:31:03 31° SSE
USA 267 3.6 00:19:57 10° NE 00:26:23 62° NNW 00:30:20 25° WSW
Cosmos 1400 Rocket 3.4 00:32:16 54° N 00:32:16 54° N 00:35:27 10° N
Cosmos 1733 Rocket 3.3 00:27:57 10° N 00:31:54 66° NE 00:31:54 66° NE
Resurs 1-4 Rocket 4.2 00:31:25 10° ENE 00:34:18 15° E 00:35:59 13° ESE
GP-B 3.7 00:31:14 10° N 00:35:02 46° WNW 00:35:02 46° WNW
Nimbus 7 Rocket 4.4 00:29:37 10° NNE 00:35:37 72° ESE 00:36:43 58° SSE
H-2A R/B 3.3 00:34:57 10° N 00:38:54 33° WNW 00:38:59 33° WNW
Cosmos 676 Rocket 4.1 00:42:47 60° SE 00:43:11 62° ESE 00:48:27 10° NNE
NOSS 3-4 (A) 3.8 00:36:40 10° NW 00:43:43 82° SW 00:47:10 38° SSE
NOSS 3-4 (C) 3.8 00:36:47 10° NW 00:43:49 83° SW 00:47:19 37° SSE
Cosmos 2251 Rocket 4.0 00:44:26 44° W 00:45:11 47° WNW 00:50:17 10° N
Cosmos 407 Rocket 4.2 00:44:27 39° W 00:45:19 43° WNW 00:50:21 10° N
Cosmos 1346 Rocket 3.4 00:42:00 10° N 00:45:17 52° NE 00:45:17 52° NE
Cosmos 468 Rocket 4.1 00:43:26 10° NNW 00:48:44 71° ENE 00:49:48 55° SE
Cosmos 1954 Rocket 3.8 00:48:42 74° S 00:49:12 85° ESE 00:54:33 10° NNE
Cosmos 2315 Rocket 4.3 00:43:25 10° NNW 00:49:27 50° W 00:50:26 46° WSW
Okean 2 4.2 00:49:49 41° ENE 00:49:49 41° ENE 00:53:13 10° NNE
Cosmos 1190 Rocket 4.0 00:51:10 62° WSW 00:51:45 68° WNW 00:57:03 10° NNE
Nadezhda 2 Rocket 4.4 00:55:25 55° S 00:56:57 90° E 01:03:23 10° N
Cosmos 1763 Rocket 3.4 00:52:51 10° NNW 00:58:07 65° WSW 00:58:19 64° WSW
Cosmos 1703 Rocket 4.4 00:58:55 40° ESE 00:59:15 41° E 01:03:26 10° NNE
Cosmos 2322 Rocket 4.3 00:55:02 10° N 00:59:32 23° NE 01:04:00 10° ESE
BREEZE-M R/B 4.3 00:59:28 33° SE 01:00:05 34° SE 01:08:51 10° ENE
Cosmos 1300 4.1 00:57:18 10° NNW 00:59:22 29° NW 00:59:22 29° NW
SL-14 R/B 4.4 01:01:39 35° NW 01:01:39 35° NW 01:04:37 10° N
USA 234 3.1 00:56:31 21° SE 01:01:06 81° SW 01:07:42 10° NW
Cosmos 1862 Rocket 3.9 01:04:13 52° WNW 01:04:13 52° WNW 01:08:13 10° N
SL-8 R/B 3.9 00:59:50 10° WNW 01:04:37 70° NNE 01:09:23 10° ESE
Cosmos 1953 2.9 01:01:30 10° N 01:05:19 49° E 01:05:21 49° E
Cosmos 1697 Rocket 4.0 01:01:56 10° NW 01:05:44 24° W 01:05:44 24° W
Cosmos 1980 Rocket 2.5 01:08:21 10° NW 01:13:48 47° WSW 01:14:01 47° WSW
Nadezhda 1 Rocket 4.2 01:08:54 10° N 01:15:19 68° E 01:18:17 33° SSE
Cosmos 540 Rocket 3.4 01:11:27 10° NNW 01:16:33 61° WSW 01:16:52 59° SW
MOZ.5/SAFIR/RUBIN 5/SL-8 3.9 01:18:21 52° SE 01:19:26 75° ENE 01:24:10 10° N
COSMOS 2406 3.6 01:19:32 42° WSW 01:21:06 56° WNW 01:26:48 10° NNE
ADEOS II 3.8 01:17:23 10° NE 01:21:37 24° E 01:24:12 17° SE
Cosmos 1356 Rocket 4.2 01:22:17 37° WNW 01:22:17 37° WNW 01:25:54 10° N
Cosmos 2369 3.9 01:19:22 10° NW 01:24:53 50° WSW 01:25:29 48° SW
Lacrosse 5 rocket 2.7 01:21:22 10° NW 01:25:14 38° NE 01:28:56 10° ESE
EXPRESS MD2 4.4 01:27:55 27° E 01:27:55 27° E 01:29:54 10° ENE
IDEFIX/ARIANE 42P 3.0 01:21:39 10° NNE 01:26:50 56° E 01:28:28 40° SSE
Okean 1-7 3.1 01:30:04 57° W 01:30:12 57° W 01:34:28 10° N
Meteor 1-16 Rocket 4.4 01:26:55 10° NNW 01:32:30 58° W 01:33:51 46° SW
Cosmos 1315 Rocket 2.6 01:39:37 71° W 01:39:40 71° W 01:43:35 10° N
Cosmos 1238 4.5 01:36:43 10° N 01:40:13 76° N 01:40:13 76° N
SJ 16-02 2.6 01:39:50 26° SE 01:41:06 31° E 01:44:55 10° NE
Helios 1A Rocket 4.2 01:43:06 26° WNW 01:43:06 26° WNW 01:45:35 10° NW
SL-16 R/B 2.3 01:38:42 10° NNW 01:44:23 74° ENE 01:49:03 16° SSE
CZ-2C R/B 4.0 01:39:44 10° NNE 01:45:20 47° E 01:48:25 25° SSE
Cosmos 1850 Rocket 3.9 01:46:14 46° SSW 01:47:54 88° ESE 01:53:12 10° NNE
Cosmos 2082 Rocket 3.6 01:48:50 21° W 01:51:24 29° NW 01:56:20 10° N
Cosmos 1709 Rocket 4.0 01:49:42 33° S 01:52:44 85° E 01:59:07 10° N
Cosmos 1741 Rocket 3.9 01:51:18 44° SSW 01:53:01 89° WNW 01:58:18 10° NNE
SL-16 R/B 3.6 01:49:23 10° SE 01:55:17 45° ENE 02:01:12 10° N
Cosmos 2219 Rocket 4.3 01:52:33 10° N 01:57:15 26° NE 02:01:57 10° ESE
Cosmos 1782 Rocket 3.4 01:53:59 10° N 01:58:23 82° W 01:59:39 46° S
Cosmos 1908 Rocket 4.1 01:54:53 10° NNW 01:59:02 40° W 01:59:24 39° WSW
CZ-2D R/B 2.2 01:54:41 10° NNE 02:00:12 81° ESE 02:02:42 33° S
Cosmos 1703 4.2 02:00:01 28° SE 02:01:22 40° E 02:04:53 10° NNE
Cosmos 968 Rocket 3.4 02:02:10 38° SSW 02:04:09 82° ESE 02:09:18 10° NNE
Cosmos 2237 4.1 01:58:29 10° NNW 02:04:11 70° WSW 02:07:48 23° S
Cosmos 1455 3.2 02:02:35 10° NNW 02:05:04 29° WNW 02:05:04 29° WNW
Genesis I 2.9 02:05:37 59° SSE 02:06:01 67° ESE 02:09:34 10° NE
Cosmos 2360 Rocket 2.9 02:00:50 10° NNW 02:06:26 55° ENE 02:11:59 10° SE
Meteor 1-24 Rocket 4.5 02:02:47 19° SSE 02:07:01 52° E 02:12:50 10° NNE
CRYOSAT 2 4.4 02:03:21 10° N 02:08:16 76° E 02:10:48 29° S
DELTA 2 R/B (1) 3.5 02:06:58 25° WSW 02:10:07 60° S 02:15:34 10° ESE
RESURS DK-1 4.2 02:06:44 10° N 02:10:23 31° ENE 02:14:02 10° ESE
MSX 3.8 02:07:26 10° N 02:13:09 70° WNW 02:15:59 31° SSW
Resurs 1-4 Rocket 2.1 02:09:22 10° N 02:14:36 72° WNW 02:17:04 32° SSW
Cosmos 841 Rocket 3.9 02:09:51 10° NNW 02:14:46 42° WSW 02:16:19 33° SW
H-2A R/B 4.1 02:15:06 10° N 02:18:50 39° WNW 02:19:49 33° WSW
FENGYUN 3A 3.7 02:18:41 10° NNE 02:24:05 82° ESE 02:27:27 24° S
OAO 3 Rocket 4.0 02:24:07 31° SSW 02:24:34 31° S 02:28:52 10° SE
Cosmos 2278 4.2 02:20:54 10° NW 02:26:10 39° WSW 02:28:37 26° SSW
SL-24 R/B 4.3 02:28:16 20° S 02:31:44 85° W 02:36:35 10° N
CZ-2C R/B 2.7 02:29:15 25° SSW 02:31:59 51° W 02:37:02 10° NNW
Cosmos 2242 Rocket 3.9 02:30:52 31° SW 02:32:39 51° WNW 02:37:02 10° N
Cosmos 1825 3.9 02:33:18 10° SSE 02:36:11 26° E 02:39:04 10° NNE
SAR-Lupe-1 4.4 02:35:41 10° NNE 02:39:14 61° ESE 02:41:25 21° S
Cosmos 2333 Rocket 2.2 02:33:40 10° NNW 02:39:25 88° ENE 02:45:10 10° SSE
Sich 1 Rocket 4.4 02:35:16 10° N 02:39:40 51° ENE 02:44:00 10° SSE
Cosmos 2098 Rocket 3.7 02:34:53 10° N 02:40:11 81° W 02:46:23 10° S
Cosmos 1953 4.5 02:39:16 10° WNW 02:40:27 12° W 02:40:27 12° W
SL-27 R/B 2.2 02:40:26 41° WSW 02:40:56 48° WNW 02:43:40 10° N
Cosmos 2151 Rocket 4.1 02:37:46 10° N 02:42:12 59° E 02:46:35 10° SSE
Cosmos 1892 3.8 02:39:18 12° SSE 02:42:14 37° E 02:45:30 10° NNE
Cosmos 1814 Rocket 3.9 02:38:03 10° NNW 02:43:15 69° WSW 02:48:29 10° S
Cosmos 2292 4.4 02:40:39 10° N 02:43:51 87° E 02:47:14 13° S
Cosmos 2322 Rocket 2.2 02:38:24 10° NNW 02:43:58 59° WSW 02:49:31 10° S
USA 234 4.3 02:43:44 21° SW 02:44:43 21° WSW 02:49:33 10° WNW
Cosmos 1242 Rocket 3.8 02:44:54 18° WNW 02:45:01 18° WNW 02:47:05 10° NNW
SL-8 R/B 4.2 02:42:32 10° WNW 02:46:50 34° SW 02:51:09 10° SSE
Meteor 2-5 Rocket 3.8 02:43:00 19° SSW 02:47:20 75° W 02:53:19 10° N
SL-4 R/B 2.6 02:47:25 23° SSW 02:49:45 49° SE 02:54:04 10° ENE
Cosmos 1408 3.7 02:53:36 19° W 02:54:03 20° WNW 02:56:21 10° NNW
Cosmos 2074 Rocket 4.0 02:48:44 12° S 02:54:35 88° E 03:00:50 10° N
Okean 2 Rocket 3.2 02:50:42 10° N 02:55:06 75° E 02:59:30 10° SSE
Cosmos 1674 Rocket 3.6 02:52:26 14° S 02:56:12 82° E 03:00:39 10° N
Cosmos 1570 Rocket 4.3 02:55:47 10° NNW 03:01:06 72° ENE 03:06:25 10° SSE
Tiangong -0.5 03:00:18 18° S 03:01:18 21° SSE 03:03:42 10° ESE
ADEOS II 2.6 02:56:27 10° N 03:01:23 43° WNW 03:05:05 17° SW
Cosmos 1833 4.4 02:58:20 18° SW 03:02:28 61° WNW 03:08:04 10° NNE
Lacrosse 5 rocket 2.0 02:59:57 10° WNW 03:03:28 30° SW 03:06:50 10° S
IDEFIX/ARIANE 42P 4.2 03:02:07 10° NNW 03:05:55 21° WNW 03:09:13 12° WSW
ALOS 2.4 03:02:13 10° N 03:06:48 61° WNW 03:10:34 15° SSW
METEOR-M 4.4 03:05:17 10° NNE 03:10:37 68° ESE 03:15:56 10° S
Cosmos 2184 Rocket 4.0 03:06:42 11° SSW 03:12:46 70° W 03:19:03 10° N
Cosmos 1378 Rocket 3.7 03:10:03 15° SSW 03:13:26 53° W 03:17:39 10° N
Cosmos 405 Rocket 2.4 03:10:41 10° NNW 03:14:18 81° W 03:17:57 10° S
CZ-2C R/B 3.0 03:14:36 10° NNE 03:19:18 55° E 03:23:48 10° S
ATLAS CENTAUR R/B 2.4 03:16:20 10° S 03:19:27 32° ESE 03:22:38 10° NE
SJ 16-02 2.7 03:16:36 13° WSW 03:19:27 24° WNW 03:23:00 10° N
Envisat 3.1 03:14:42 10° NNE 03:19:48 82° ESE 03:24:52 10° SSW
Okean 1 Rocket 3.0 03:17:19 10° N 03:21:40 90° NE 03:25:58 10° S
Cosmos 2154 Rocket 4.0 03:17:50 10° SSW 03:24:00 71° W 03:30:14 10° N
CZ-2C R/B 4.5 03:20:01 10° N 03:24:50 28° WNW 03:29:26 11° WSW
Nadezhda 3 Rocket 4.0 03:18:27 10° N 03:24:50 81° W 03:31:08 10° S
UNK 4.0 03:20:25 10° S 03:24:53 47° W 03:29:23 10° NNW
Cosmos 158 Rocket 4.3 03:20:34 10° NNW 03:25:59 78° ENE 03:31:19 10° SSE
Cosmos 839 Rocket 4.2 03:20:25 10° NW 03:27:09 54° WSW 03:33:06 10° S
Meteor 2-11 Rocket 4.4 03:21:20 10° S 03:27:26 83° W 03:33:32 10° N
SL-16 R/B 3.7 03:24:28 10° WNW 03:27:46 16° W 03:30:48 11° SW
Cosmos 2322 4.0 03:24:26 10° NNW 03:30:10 77° ENE 03:35:50 10° SSE
ATLAS 2AS CENTAUR R/B 2.6 03:25:13 10° NW 03:32:02 83° WSW 03:38:38 10° SSE
NOAA 11 4.2 03:31:14 10° NNE 03:36:46 83° WNW 03:42:15 10° SSW
SL-16 R/B 3.3 03:33:31 10° SSW 03:38:58 31° W 03:44:28 10° NW
CZ-2D R/B 4.1 03:36:20 10° NNW 03:39:28 16° WNW 03:42:36 10° W
Cosmos 2219 Rocket 2.4 03:36:00 10° NW 03:41:29 52° WSW 03:46:56 10° S
BREEZE-M DEB (TANK) 2.0 03:40:40 10° WNW 03:43:21 51° NNE 03:45:23 10° ESE
Thor Agena Rocket 3.8 03:40:24 10° NNE 03:45:39 79° ESE 03:50:54 10° S
RESURS DK-1 3.5 03:44:44 10° NW 03:47:57 23° WSW 03:51:09 10° SSW
CZ-4 R/B 4.1 03:44:28 10° N 03:49:01 52° WNW 03:53:38 10° SSW
Cosmos 2360 Rocket 3.4 03:45:42 10° NW 03:49:58 22° W 03:54:13 10° SSW
COSMOS 2428 2.8 03:44:35 10° NNW 03:50:18 88° ENE 03:55:59 10° SSE
